Regional Weather Roundup
Issued by NWS

Home | Current Version | Previous Version | Text Only | Print | Product List | Glossary On
Versions: 1 2 3 4 5 6 7 8 9 10 11 12 13 14 15 16 17 18 19 20 21 22 23 24 25 26 27 28 29 30 31 32 33 34 35 36 37 38 39 40 41 42 43 44 45 46 47 48 49 50
000
ASUS43 KMKX 240111
RWRWI

WISCONSIN REGIONAL WEATHER ROUNDUP
NATIONAL WEATHER SERVICE MILWAUKEE/SULLIVAN WI
800 PM CDT SAT JUL 23 2016

NOTE: "FAIR" INDICATES FEW OR NO CLOUDS BELOW 12,000 FEET WITH NO
SIGNIFICANT WEATHER AND/OR OBSTRUCTIONS TO VISIBILITY.

WIZ001-002-006>008-014>016-023>028-240200-
NORTHWEST WISCONSIN

CITY           SKY/WX    TMP DP  RH WIND       PRES   REMARKS
SUPERIOR ARPT  CLOUDY    64  61  90 E6        29.84F
ASHLAND        CLOUDY    71  66  84 CALM      29.86S
HAYWARD        MOCLDY    72  68  87 SE9       29.85F
SIREN          MOCLDY    73  70  88 SE5       29.83S
CUMBERLAND     CLOUDY    70  68  94 E6        29.84F
RICE LAKE      CLOUDY    70  68  91 CALM      29.85F
CHETEK         CLOUDY    70  70  98 SE5       29.84F
LADYSMITH      CLOUDY    72  69  93 SE5       29.88F
EAU CLAIRE     CLOUDY    72  70  93 E8        29.83F
MENOMONIE      PTCLDY    73  73  98 E5        29.83F
NEW RICHMOND   CLEAR     73  71  91 SE7       29.81F
OSCEOLA        PTCLDY    74  74 100 SE7       29.83F
$$

WIZ003>005-009-010-017-018-240200-
NORTH CENTRAL WISCONSIN

CITY           SKY/WX    TMP DP  RH WIND       PRES   REMARKS
MANITOWISH WTR RAIN      72  72 100 S6        29.91S
ARBOR VITAE    RAIN      73  71  93 S5        29.91F
WOODRUFF       RAIN      73  71  93 S5        29.91F
RHINELANDER    LGT RAIN  74  70  87 S5        29.92F
EAGLE RIVER    LGT RAIN  73  64  73 S5        29.91F
LAND O LAKES   DRIZZLE   73  67  82 CALM      29.93F
PHILLIPS       LGT RAIN  71  70  97 SE6       29.89F
TOMAHAWK       LGT RAIN  69  66  90 CALM      29.91F
MEDFORD        LGT RAIN  68  68 100 SE5       29.88F
MERRILL        LGT RAIN  72  68  86 S3        29.91S
$$

WIZ029-030-035-036-043>047-240200-
CENTRAL WISCONSIN

CITY           SKY/WX    TMP DP  RH WIND       PRES   REMARKS
WAUSAU         CLOUDY    71  66  84 VRB6      29.88F
MOSINEE        MOCLDY    70  68  94 SE3       29.91F
MARSHFIELD     CLOUDY    71  66  84 SE8       29.87F
STEVENS POINT  CLOUDY    69  67  95 CALM      29.89F
WAUPACA        CLOUDY    76  76  99 CALM      29.89F
WAUTOMA        CLOUDY    73  72  96 S6        29.90S
WISC RAPIDS    CLOUDY    71  66  84 S3        29.88F
CAMP DOUGLAS   CLOUDY    70  69  95 SE9       29.87F
$$

WIZ011>013-019>022-031-037>040-048>050-240200-
NORTHEAST WISCONSIN

CITY           SKY/WX    TMP DP  RH WIND       PRES   REMARKS
ANTIGO         CLOUDY    73  71  94 CALM      29.93S
SHAWANO        CLOUDY    78  70  76 CALM      29.89S HX  81
OCONTO         CLOUDY    77  71  83 SE5       29.89S
STURGEON BAY   MOCLDY    74  64  71 SE6       29.92S
GREEN BAY      LGT RAIN  76  74  93 SE9       29.88F
MANITOWOC      CLOUDY    73  69  87 CALM      29.91F
APPLETON       LGT RAIN  73  72  94 VRB5      29.88F
CLINTONVILLE   CLOUDY    75  72  88 CALM      29.89R
OSHKOSH        CLOUDY    73  70  90 S6        29.89F
$$

WIZ032>034-041-042-053>061-240200-
SOUTHWEST WISCONSIN

CITY           SKY/WX    TMP DP  RH WIND       PRES   REMARKS
LA CROSSE      CLOUDY    75  68  78 SE5       29.83R
SPARTA         CLOUDY    71  67  88 CALM      29.86S
VIROQUA        CLOUDY    70  70 100 SE12      29.88S
BOSCOBEL       CLOUDY    73  70  90 CALM      29.87F
PRAIRIE DU CHI CLOUDY    71  69  95 SE6       29.85F
PLATTEVILLE    CLOUDY    71  71 100 E6        29.90F
$$

WIZ056-057-062-063-064-067-068-240200-
SOUTH CENTRAL WISCONSIN

CITY           SKY/WX    TMP DP  RH WIND       PRES   REMARKS
REEDSBURG      LGT RAIN  71  71 100 E6        29.89F
BARABOO/DELLS  LGT RAIN  71  69  94 SE7       29.90F
LONE ROCK      LGT RAIN  72  71  97 E5        29.90F
MINERAL POINT  LGT RAIN  72  70  94 SE6       29.91F
MADISON        TSTM      71  70  96 N5        29.93F FOG
MIDDLETON      CLOUDY    72  72 100 CALM      29.93F
WATERTOWN      CLOUDY    71  71 100 SW8       29.97R
MONROE         LGT RAIN  70  68  94 E7        29.94F
JANESVILLE     TSTM      72  72 100 S6        29.95R
$$

WIZ051-052-058>065-066-070>072-240200-
SOUTHEAST WISCONSIN

CITY           SKY/WX    TMP DP  RH WIND       PRES   REMARKS
MILWAUKEE      CLOUDY    75  71  87 SE6       29.91F
WAUKESHA       CLOUDY    72  70  94 CALM      29.95S
MILWAUKEE/TIMM NOT AVBL
RACINE         LGT RAIN  73  69  87 SE8       29.93F
BURLINGTON     LGT RAIN  72  70  95 CALM      29.95R
KENOSHA        CLOUDY    73  69  87 SE9       29.93F
FOND DU LAC    LGT RAIN  74  72  93 S8        29.92F
SHEBOYGAN      CLOUDY    77  74  90 S6        29.93R FOG
WEST BEND      RAIN      72  70  94 CALM      29.95S
JUNEAU         RAIN      71  71  98 CALM      29.95S
$$

LSZ147-162-240200-
LAKE SUPERIOR

STATION/POSITION TIME  TEMP    WIND        PRES    WAVE
                       AIR SEA DIR/SP/G            HT/PER
                 (UTC) (F)     (DEG/KT/KT) (MB)    (FT/S)
W MID LAKE BUOY  0050   61 58   70/ 14/ 17 1009.5F   2/ 4
DEVILS ISLAND    0000   62      40/ 12/ 13 1010.6F
PORT WING        0040   63      20/ 12/ 14 1011.2S
SAXON HARBOR     0000   70      10/  2/  2 1010.5
$$

LMZ867-665-643>646-240200-
LAKE MICHIGAN

STATION/POSITION TIME  TEMP    WIND        PRES    WAVE
                       AIR SEA DIR/SP/G            HT/PER
                 (UTC) (F)     (DEG/KT/KT) (MB)    (FT/S)
CHAMBERS ISLAND  0000   78     150/  2/  5 1012.9F
S GREEN BAY BUOY 0000   77 76  140/  8/  8   N/A
N MID LAKE BUOY  0050   74 74  120/  4/  4 1012.4F   0
NORTHPORT PIER   0000   74     140/  5/  7 1012.9F
KEWAUNEE LAKESHO 0012          180/  2/  3 1012.5
SHEBOYGAN LAKESH 0000   72     210/  4/  4 1012.7F
PORT WASHINGTON  0000   70     200/  6/  8 1013.5F
MILWAUKEE LAKESH 0010   69     170/  6/  6   N/A
S MID LAKE BUOY  0050   77 76  130/  8/ 10 1013.4F   0
KENOSHA   LAKESH 0100   69     170/  6/ 10 1012.9F
$$

TC  - TEMPERATURE IN CELSIUS
VSB - VISIBILITY IN STATUTE MILES
WCI - WIND CHILL INDEX
HX  - HEAT INDEX




USA.gov is the U.S. government's official web portal to all federal, state and local government web resources and services.